sat.trackr.live / text

‹ back to catalog

TIMED

NORAD 26998 · 2001-055B

PAYLOAD ACTIVE UNKNOWN

§ Identity

Operator
Country
US
Launch date
2001-12-07
Launch site
AFWTR
Launch vehicle
Mass (kg)
RCS (m²)
2.72

Purposes: science

External: N2YO · Heavens-Above · Gunter

§ Orbital elements

Epoch: 2026-09-19T09:44:02.933664Z

Period
96.29 min
Inclination
74.0678°
Eccentricity
0.0001733
Mean motion
14.95463014 rev/d
Perigee alt
579.7 km
Apogee alt
582.1 km
Semi-major
6,959.1 km
B*
7.7869e-5
RAAN
45.2811°
Arg perigee
231.8515°
Mean anomaly
128.2514°
Rev number
34,490

§ Raw data

TIMED1 26998U 01055B   26262.40558951  .00000822  00000+0  77869-4 0  99922 26998  74.0678  45.2811 0001733 231.8515 128.2514 14.95463014344908

JSON: /api/v1/satellites/26998 · /tle

For live sub-satellite position, see the globe view (requires WebGL).

§ Visibility from observer

Set your observer location to see the next 7 days of passes ≥ 10°. The values pass through the URL so the page stays shareable.

No JS? Fill the form by hand. The geolocation button needs JavaScript.